Simultaneous Nadir Overpasses (SNOs) Predictions

Prediction of SNOs between GOES-16 and TERRA Satellite Orbit:

Table of predicted SNOs for the next 14.0 days since TLE Epoch: 1/23/2021
Index Date Time (GOES-16) GOES-16 Lat,Lon TERRA Lat,Lon Distance(km) Time Diff (sec)
1 01/23/2021 15:13:49 -0.01, -75.21 -0.93, -70.82 498.91 80
2 01/24/2021 03:35:13 0.01, -75.19 -0.17, -76.02 94.12 80
3 01/26/2021 03:20:21 0.01, -75.19 0.48, -73.07 242.02 80
4 01/26/2021 15:41:36 -0.01, -75.21 0.63, -78.22 342.02 80
5 01/28/2021 15:29:23 -0.00, -75.21 0.03, -75.26 6.01 80
6 01/30/2021 15:19:51 -0.00, -75.22 -0.63, -72.30 331.70 80
7 01/31/2021 03:41:15 0.00, -75.20 -0.47, -77.50 260.49 80
8 02/02/2021 03:26:22 -0.00, -75.22 0.14, -74.53 77.38 80
9 02/04/2021 03:14:10 -0.00, -75.23 0.80, -71.58 415.65 80
10 02/04/2021 15:35:24 -0.00, -75.26 0.31, -76.74 168.23 80
